EDW213 GCFV-LSZH

Flight info

Callsign EDW213
Flight time N/A
Altitude 34000
Route VASTO UN858 AKUDA DCT PESAS DCT OSLEP DCT OXACA DCT HIJ DCT CRISA DCT INPAN DCT VTB DCT PALIO DCT SEGRE DCT YAKXU DCT RONNY DCT TOPTU DCT TOU DCT GAI DCT MEN DCT NINUN DCT LATAM DCT ETREK DCT LTP DCT SOPLO DCT OMASI DCT KINNI DCT LAMUR DCT GUDAX Z57 DOPIL
Aircraft A320/M-SDE3FGHIRWY/LB1

Departure

Time 2026-05-04 10:20
Airport Fuerteventura Airport (GCFV)

Arrival

Time N/A
Airport Zürich Airport (LSZH)
Time Latitude Longitude Altitude Speed Heading
2026-05-04 09:23 28.45436 -13.86830 99 ft 0 kts 271°
2026-05-04 10:11 28.45436 -13.86814 100 ft 4 kts 270°
2026-05-04 10:11 28.45437 -13.86784 98 ft 4 kts 264°
2026-05-04 10:12 28.45441 -13.86754 99 ft 4 kts 247°
2026-05-04 10:12 28.45455 -13.86733 97 ft 3 kts 190°
2026-05-04 10:12 28.45459 -13.86732 97 ft 0 kts 182°
2026-05-04 10:16 28.45057 -13.86578 95 ft 25 kts 179°
2026-05-04 10:16 28.44867 -13.86583 93 ft 29 kts 181°
2026-05-04 10:16 28.44655 -13.86590 71 ft 30 kts 181°
2026-05-04 10:16 28.44465 -13.86596 60 ft 27 kts 181°
2026-05-04 10:17 28.44304 -13.86601 63 ft 22 kts 181°
2026-05-04 10:17 28.44148 -13.86606 56 ft 22 kts 181°
2026-05-04 10:19 28.43314 -13.86457 32 ft 9 kts 51°
2026-05-04 10:19 28.43445 -13.86436 33 ft 44 kts
2026-05-04 10:19 28.43979 -13.86418 35 ft 106 kts
2026-05-04 10:19 28.44884 -13.86388 74 ft 152 kts
2026-05-04 10:20 28.46028 -13.86347 377 ft 170 kts
2026-05-04 10:20 28.47152 -13.86021 1055 ft 168 kts 37°
2026-05-04 10:20 28.48037 -13.85133 1643 ft 177 kts 37°
2026-05-04 10:20 28.49131 -13.84322 1887 ft 200 kts 31°
2026-05-04 10:21 28.50419 -13.83502 2166 ft 224 kts 30°
2026-05-04 10:21 28.51855 -13.82608 2546 ft 245 kts 29°
2026-05-04 10:21 28.53366 -13.81665 3279 ft 250 kts 29°
2026-05-04 10:21 28.54904 -13.80699 4008 ft 256 kts 28°
2026-05-04 10:22 28.58114 -13.78748 5469 ft 266 kts 24°
2026-05-04 10:22 28.59813 -13.77871 6132 ft 273 kts 21°
2026-05-04 10:22 28.61580 -13.77001 6803 ft 278 kts 20°
2026-05-04 10:23 28.63374 -13.76121 7476 ft 283 kts 20°
2026-05-04 10:23 28.65189 -13.75224 8154 ft 288 kts 20°